Weather in Pokrovka

Kazakhstan     54°17′49″N   68°21′19″E
temp.,
°C
wind,
m/s
gust,
m/s
humid.,
%
clouds,
%
prec.,
mm/h
press.,
hPa
HPBL,
m
23 january, sat
sat2300:00−23w239894 0.1 102330
03:00−24nw229998 0.0 102420
06:00−26n349998 0.1 102674
09:00−29n3698100 0.1 1030129
12:00−31n369692 0.1 1032160
15:00−31nnw359427 0.0 1034211
18:00−34nw339524 0.0 103720
21:00−36nw229545 0.0 103919
24 january, sun
sun2400:00−34w129471 0.0 103919
03:00−33wsw2293100 0.0 104021
06:00−32sw2292100 0.0 104027
09:00−31s2292100 0.0 103938
12:00−28se2396100 0.1 1039177
15:00−26ese2396100 0.1 1038196
18:00−27e349791 0.1 103978
21:00−29ese459749 0.0 104080
25 january, mon
mon2500:00−28ese469864 0.0 1040101
03:00−27ese469788 0.0 103999
06:00−25ese479693 0.0 1038174
09:00−22ese4798100 0.2 1037229
12:00−20ese5798100 0.8 1036232
15:00−18e4697100 0.4 1035238
18:00−18e4697100 0.8 1035189
21:00−18e4697100 0.1 1035165
26 january, tue
tue2600:00−19e469799 0.3 1035150
03:00−20e359893 0.1 1035112
06:00−20e349895 0.1 1035110
09:00−19e349899 0.1 1036127
12:00−18e349799 0.3 1036132
15:00−16ese339696 0.1 1036144
18:00−17ese339688 0.2 103665
21:00−16ese349787 0.1 103795
27 january, wed
wed2700:00−14se339686 0.3 103780
03:00−11se239696 0.3 103647
06:00−6sw389697 0.5 1035253
09:00−4sw5109499 0.1 1034443
12:00−4sw61291100 0.1 1033559
15:00−4sw71290100 0.0 1032506
18:00−7wsw6139094 0.0 1032387
21:00−10wsw6139149 0.0 1033299